Weather History for Burlington, VT

Change the Weather History Date:

Thursday, December 13, 2012

  Actual Average Record
Temperature  
Mean Temperature 34 °F 27 °F  
Max Temperature 39 °F 34 °F 56 °F (1946)
Min Temperature 28 °F 20 °F -9 °F (1982)
Degree Days  
Heating Degree Days 31 38  
Month to date heating degree days 369 462  
Since 1 July heating degree days 1721 2007  
Cooling Degree Days 0 0  
Month to date cooling degree days 0 0  
Year to date cooling degree days 747 491  
Moisture  
Dew Point 24 °F    
Average Humidity 65    
Maximum Humidity 78    
Minimum Humidity 52    
Precipitation  
Precipitation T in 0.08 in 1.45 in (1983)
Month to date precipitation 1.05 1.11  
Year to date precipitation 33.69 35.55  
Snow  
Snow T in 0.60 in 4.90 in (1941)
Month to date snowfall 1.1 6.5  
Since 1 July snowfall 4.9 11.9  
Snow Depth 0.00 in    
Sea Level Pressure  
Sea Level Pressure 30.38 in    
Wind  
Wind Speed 5 mph (South)    
Max Wind Speed 13 mph    
Max Gust Speed 17 mph    
Visibility 10 miles    
Events      
T = Trace of Precipitation, MM = Missing Value Source: NWS Daily Summary

Daily Weather History Graph

Daily Weather History Graph

Search for Another Location

Airport:

Trip Planner

Search our weather history database for the weather conditions in past years. The results will help you decide how hot, cold, wet, or windy it might be!

Date:

Astronomy

Dec. 13, 2012 Rise Set
Actual Time 7:20 AM EST 4:13 PM EST
Civil Twilight 6:47 AM EST 4:46 PM EST
Nautical Twilight 6:10 AM EST 5:23 PM EST
Astronomical Twilight 5:35 AM EST 5:58 PM EST
Moon 7:25 AM EST (12/13) 4:53 PM EST (12/13)
Length of Visible Light 9h 59m
Length of Day
8h 52m
New Moon, 0% of the Moon is Illuminated
Dec 13
New Moon
Dec 20
First Quarter
Dec 28
Full
Jan 4
Last Quarter
Jan 11
New

Hourly Weather History & Observations

Time (EST) Temp. Windchill Dew Point Humidity Pressure Visibility Wind Dir Wind Speed Gust Speed Precip Events Conditions
12:54 AM 33.1 °F 30.0 °F 25.0 °F 72% 30.40 in 10.0 mi SSW 3.5 mph - N/A   Overcast
1:54 AM 34.0 °F 29.8 °F 25.0 °F 70% 30.41 in 10.0 mi SSW 4.6 mph - N/A   Overcast
2:54 AM 32.0 °F - 25.0 °F 75% 30.43 in 10.0 mi Calm Calm - 0.00 in   Overcast
3:54 AM 33.1 °F - 25.0 °F 72% 30.42 in 10.0 mi Calm Calm - N/A   Overcast
4:54 AM 30.9 °F - 25.0 °F 79% 30.42 in 10.0 mi Calm Calm - N/A   Overcast
5:32 AM 32.0 °F - 24.8 °F 75% 30.42 in 10.0 mi Calm Calm - N/A   Overcast
5:54 AM 32.0 °F - 25.0 °F 75% 30.44 in 10.0 mi Calm Calm - N/A   Overcast
6:54 AM 30.2 °F - 24.8 °F 80% 30.44 in 10.0 mi Calm Calm - N/A   Mostly Cloudy
7:40 AM 28.4 °F 24.6 °F 24.8 °F 86% 30.45 in 10.0 mi East 3.5 mph - N/A   Mostly Cloudy
7:54 AM 30.0 °F - 25.0 °F 82% 30.46 in 10.0 mi Calm Calm - N/A   Scattered Clouds
8:54 AM 32.0 °F - 26.1 °F 79% 30.46 in 10.0 mi Calm Calm - N/A   Partly Cloudy
9:54 AM 35.1 °F 31.0 °F 26.1 °F 70% 30.45 in 10.0 mi South 4.6 mph - N/A   Partly Cloudy
10:54 AM 36.0 °F 33.3 °F 25.0 °F 64% 30.43 in 10.0 mi SW 3.5 mph - N/A   Partly Cloudy
11:54 AM 37.9 °F 32.7 °F 23.0 °F 55% 30.41 in 10.0 mi SSW 6.9 mph - N/A   Scattered Clouds
12:54 PM 37.9 °F 34.4 °F 23.0 °F 55% 30.39 in 10.0 mi SSE 4.6 mph - N/A   Scattered Clouds
1:54 PM 37.9 °F 30.9 °F 21.9 °F 53% 30.38 in 10.0 mi South 10.4 mph - N/A   Mostly Cloudy
2:54 PM 37.9 °F 32.1 °F 23.0 °F 55% 30.36 in 10.0 mi South 8.1 mph - N/A   Scattered Clouds
3:54 PM 37.0 °F 33.3 °F 23.0 °F 57% 30.35 in 10.0 mi South 4.6 mph - N/A   Clear
4:54 PM 33.1 °F 28.7 °F 21.9 °F 64% 30.35 in 10.0 mi South 4.6 mph - N/A   Clear
7:54 PM 33.8 °F 25.3 °F 21.2 °F 60% 30.28 in 10.0 mi South 11.5 mph - N/A   Clear
8:54 PM 34.0 °F 26.6 °F 21.9 °F 61% 30.28 in 10.0 mi South 9.2 mph - N/A   Clear
9:54 PM 33.1 °F 26.1 °F 21.9 °F 64% 30.27 in 10.0 mi South 8.1 mph - N/A   Clear
10:54 PM 34.0 °F 27.2 °F 23.0 °F 64% 30.25 in 10.0 mi SSW 8.1 mph - N/A   Clear
11:54 PM 35.1 °F 27.9 °F 24.1 °F 64% 30.22 in 10.0 mi South 9.2 mph - N/A   Partly Cloudy